AVA79 TNCC-SKBO

Flight info

Callsign AVA79
Flight time N/A
Altitude 36000
Route EMAPA1K EMAPA DCT ALCOT UG431 STB DCT BUV/N0369F240 A567 VULAM VULAM7D
Aircraft A320/M-SDE3FGHIRWY/LB1

Departure

Time 2026-04-29 22:02
Airport Hato International Airport (TNCC)

Arrival

Time N/A
Airport El Dorado International Airport (SKBO)
Time Latitude Longitude Altitude Speed Heading
2026-04-29 21:42 12.18565 -68.95722 28 ft 0 kts 178°
2026-04-29 21:46 12.18569 -68.95723 29 ft 0 kts 178°
2026-04-29 21:54 12.18574 -68.95722 28 ft 2 kts 163°
2026-04-29 21:54 12.18590 -68.95724 28 ft 2 kts 196°
2026-04-29 21:54 12.18603 -68.95720 28 ft 2 kts 204°
2026-04-29 21:54 12.18615 -68.95714 28 ft 2 kts 210°
2026-04-29 21:55 12.18628 -68.95706 28 ft 2 kts 218°
2026-04-29 21:55 12.18639 -68.95696 28 ft 2 kts 233°
2026-04-29 21:55 12.18645 -68.95687 28 ft 1 kts 262°
2026-04-29 21:55 12.18646 -68.95683 28 ft 0 kts 276°
2026-04-29 21:57 12.18651 -68.95709 28 ft 10 kts 281°
2026-04-29 21:57 12.18671 -68.95815 28 ft 17 kts 280°
2026-04-29 21:57 12.18693 -68.95929 28 ft 16 kts 282°
2026-04-29 21:57 12.18715 -68.96036 28 ft 15 kts 282°
2026-04-29 21:58 12.18736 -68.96137 28 ft 14 kts 282°
2026-04-29 21:58 12.18753 -68.96230 28 ft 13 kts 281°
2026-04-29 21:58 12.18770 -68.96308 28 ft 13 kts 284°
2026-04-29 21:58 12.18808 -68.96464 28 ft 26 kts 283°
2026-04-29 21:59 12.18845 -68.96638 27 ft 24 kts 282°
2026-04-29 21:59 12.18880 -68.96799 27 ft 23 kts 284°
2026-04-29 21:59 12.18913 -68.96942 26 ft 22 kts 283°
2026-04-29 21:59 12.18942 -68.97086 31 ft 20 kts 282°
2026-04-29 22:00 12.18973 -68.97233 28 ft 23 kts 282°
2026-04-29 22:00 12.19007 -68.97390 27 ft 31 kts 282°
2026-04-29 22:00 12.19048 -68.97583 28 ft 21 kts 283°
2026-04-29 22:00 12.19107 -68.97648 28 ft 8 kts 14°
2026-04-29 22:01 12.19199 -68.97606 27 ft 18 kts 56°
2026-04-29 22:01 12.19205 -68.97450 28 ft 42 kts 100°
2026-04-29 22:01 12.19095 -68.96913 26 ft 109 kts 102°
2026-04-29 22:01 12.18905 -68.96008 159 ft 145 kts 102°
2026-04-29 22:02 12.18688 -68.94970 803 ft 151 kts 102°
2026-04-29 22:02 12.18475 -68.93947 1437 ft 162 kts 100°
2026-04-29 22:02 12.18224 -68.92734 1844 ft 186 kts 100°
2026-04-29 22:02 12.17934 -68.91352 2297 ft 210 kts 101°
2026-04-29 22:03 12.17607 -68.89816 2765 ft 235 kts 102°
2026-04-29 22:03 12.16860 -68.88278 3443 ft 253 kts 134°
2026-04-29 22:03 12.15274 -68.87443 4319 ft 266 kts 168°
2026-04-29 22:03 12.13447 -68.87702 5267 ft 276 kts 203°
2026-04-29 22:04 12.11984 -68.89004 6168 ft 288 kts 235°
2026-04-29 22:04 12.11196 -68.90908 7013 ft 294 kts 250°
2026-04-29 22:04 12.10571 -68.92883 7827 ft 299 kts 250°
2026-04-29 22:04 12.09922 -68.94936 8637 ft 303 kts 250°
2026-04-29 22:05 12.09266 -68.97014 9411 ft 309 kts 250°
2026-04-29 22:05 12.08629 -68.98896 10106 ft 313 kts 246°
2026-04-29 22:05 12.06667 -69.02754 10727 ft 346 kts 237°
2026-04-29 22:06 12.05383 -69.04872 11395 ft 352 kts 235°
2026-04-29 22:06 12.04078 -69.06996 12118 ft 355 kts 236°
2026-04-29 22:06 12.02776 -69.09150 12877 ft 357 kts 236°
2026-04-29 22:06 12.01503 -69.11304 13560 ft 361 kts 237°
2026-04-29 22:07 12.00218 -69.13525 14190 ft 363 kts 236°
2026-04-29 22:07 11.98945 -69.15761 14818 ft 365 kts 238°
2026-04-29 22:07 11.97669 -69.18021 15453 ft 367 kts 239°
2026-04-29 22:07 11.96389 -69.20292 16079 ft 369 kts 238°
2026-04-29 22:08 11.95485 -69.21768 16479 ft 369 kts 233°
2026-04-29 22:08 11.93303 -69.24164 17244 ft 370 kts 219°
2026-04-29 22:08 11.91275 -69.25913 17904 ft 371 kts 219°
2026-04-29 22:08 11.89285 -69.27632 18458 ft 374 kts 220°
2026-04-29 22:09 11.87286 -69.29367 18971 ft 376 kts 219°
2026-04-29 22:09 11.85624 -69.30811 19434 ft 377 kts 219°
2026-04-29 22:09 11.84065 -69.32159 19839 ft 378 kts 220°
2026-04-29 22:09 11.82189 -69.33788 20281 ft 381 kts 219°
2026-04-29 22:10 11.80257 -69.35460 20808 ft 382 kts 218°
2026-04-29 22:10 11.78364 -69.37101 21299 ft 383 kts 218°
2026-04-29 22:10 11.76656 -69.38589 21665 ft 387 kts 219°
2026-04-29 22:10 11.74742 -69.40259 22117 ft 389 kts 218°
2026-04-29 22:11 11.72778 -69.41969 22600 ft 390 kts 218°
2026-04-29 22:11 11.70897 -69.43600 23005 ft 394 kts 218°
2026-04-29 22:11 11.68801 -69.45417 23482 ft 395 kts 218°
2026-04-29 22:11 11.66697 -69.47242 23869 ft 398 kts 219°
2026-04-29 22:12 11.64610 -69.49053 24219 ft 401 kts 219°
2026-04-29 22:12 11.62455 -69.50920 24660 ft 401 kts 219°
2026-04-29 22:12 11.60342 -69.52753 25037 ft 404 kts 220°
2026-04-29 22:12 11.58182 -69.54629 25368 ft 407 kts 219°
2026-04-29 22:13 11.56039 -69.56486 25761 ft 409 kts 219°
2026-04-29 22:13 11.53858 -69.58371 26068 ft 413 kts 220°
2026-04-29 22:13 11.51657 -69.60275 26424 ft 415 kts 220°
2026-04-29 22:13 11.49446 -69.62190 26792 ft 417 kts 220°
2026-04-29 22:14 11.47224 -69.64116 27103 ft 421 kts 221°
2026-04-29 22:14 11.44984 -69.66053 27498 ft 421 kts 221°
2026-04-29 22:14 11.42763 -69.67970 27798 ft 425 kts 221°
2026-04-29 22:14 11.40498 -69.69926 28115 ft 427 kts 221°
2026-04-29 22:15 11.38251 -69.71939 28475 ft 429 kts 224°
2026-04-29 22:15 11.36035 -69.73997 28751 ft 432 kts 225°
2026-04-29 22:15 11.34004 -69.75923 29073 ft 434 kts 224°
2026-04-29 22:15 11.31818 -69.78004 29384 ft 436 kts 225°
2026-04-29 22:16 11.29562 -69.80144 29615 ft 441 kts 225°
2026-04-29 22:16 11.27289 -69.82281 29900 ft 444 kts 225°
2026-04-29 22:16 11.25032 -69.84385 30165 ft 447 kts 224°
2026-04-29 22:16 11.22724 -69.86526 30446 ft 448 kts 224°
2026-04-29 22:17 11.20414 -69.88667 30776 ft 448 kts 223°
2026-04-29 22:17 11.18098 -69.90812 31101 ft 449 kts 223°
2026-04-29 22:17 11.15801 -69.92941 31391 ft 450 kts 223°
2026-04-29 22:17 11.13483 -69.95090 31741 ft 449 kts 223°
2026-04-29 22:18 11.11178 -69.97231 32152 ft 447 kts 223°
2026-04-29 22:18 11.08887 -69.99364 32552 ft 445 kts 223°
2026-04-29 22:18 11.06629 -70.01466 32943 ft 444 kts 223°
2026-04-29 22:18 11.04347 -70.03586 33361 ft 442 kts 223°
2026-04-29 22:19 11.02080 -70.05698 33784 ft 441 kts 223°
2026-04-29 22:19 10.99820 -70.07806 34136 ft 439 kts 223°
2026-04-29 22:19 10.97566 -70.09910 34458 ft 438 kts 223°
2026-04-29 22:19 10.95347 -70.11979 34761 ft 437 kts 223°
2026-04-29 22:20 10.93098 -70.14080 35093 ft 436 kts 223°
2026-04-29 22:20 10.90862 -70.16169 35446 ft 434 kts 223°
2026-04-29 22:20 10.88670 -70.18213 35745 ft 433 kts 223°
2026-04-29 22:21 10.84228 -70.22347 35841 ft 432 kts 224°
2026-04-29 22:21 10.79771 -70.26498 35849 ft 434 kts 224°
2026-04-29 22:22 10.75338 -70.30627 35849 ft 434 kts 224°
2026-04-29 22:22 10.70886 -70.34772 35852 ft 433 kts 224°
2026-04-29 22:23 10.66434 -70.38926 35857 ft 433 kts 224°
2026-04-29 22:23 10.62977 -70.42164 35854 ft 435 kts 224°
2026-04-29 22:24 10.57918 -70.46861 35854 ft 436 kts 224°
2026-04-29 22:24 10.54182 -70.50318 35857 ft 436 kts 224°
2026-04-29 22:25 10.48954 -70.55151 35855 ft 434 kts 224°
2026-04-29 22:25 10.45241 -70.58590 35857 ft 432 kts 224°
2026-04-29 22:26 10.40811 -70.62694 35851 ft 431 kts 224°
2026-04-29 22:26 10.36386 -70.66787 35854 ft 431 kts 224°
2026-04-29 22:27 10.31941 -70.70895 35853 ft 431 kts 224°
2026-04-29 22:27 10.27522 -70.74983 35847 ft 431 kts 224°
2026-04-29 22:28 10.23099 -70.79074 35851 ft 431 kts 224°
2026-04-29 22:28 10.18665 -70.83176 35851 ft 431 kts 224°
2026-04-29 22:29 10.14253 -70.87253 35852 ft 431 kts 224°
2026-04-29 22:29 10.09828 -70.91340 35842 ft 428 kts 224°
2026-04-29 22:30 10.05433 -70.95390 35843 ft 427 kts 224°
2026-04-29 22:30 10.01035 -70.99450 35844 ft 427 kts 224°
2026-04-29 22:31 9.96617 -71.03533 35824 ft 429 kts 224°
2026-04-29 22:31 9.92204 -71.07597 35825 ft 429 kts 223°
2026-04-29 22:32 9.87798 -71.11649 35824 ft 429 kts 223°
2026-04-29 22:32 9.83372 -71.15731 35818 ft 429 kts 224°
2026-04-29 22:33 9.78947 -71.19815 35819 ft 429 kts 224°
2026-04-29 22:33 9.74540 -71.23873 35822 ft 429 kts 223°
2026-04-29 22:34 9.70113 -71.27935 35819 ft 429 kts 223°
2026-04-29 22:34 9.65675 -71.32012 35818 ft 431 kts 223°
2026-04-29 22:35 9.61226 -71.36116 35819 ft 433 kts 223°
2026-04-29 22:35 9.56789 -71.40201 35820 ft 433 kts 223°
2026-04-29 22:36 9.52311 -71.44318 35819 ft 433 kts 223°
2026-04-29 22:36 9.47847 -71.48408 35818 ft 433 kts 223°
2026-04-29 22:37 9.43402 -71.52482 35818 ft 433 kts 223°
2026-04-29 22:37 9.39034 -71.56500 35820 ft 433 kts 223°
2026-04-29 22:38 9.34591 -71.60582 35822 ft 433 kts 223°
2026-04-29 22:38 9.30237 -71.64574 35819 ft 434 kts 223°
2026-04-29 22:39 9.25747 -71.68690 35818 ft 435 kts 223°
2026-04-29 22:39 9.21289 -71.72774 35818 ft 435 kts 223°
2026-04-29 22:40 9.16792 -71.76885 35818 ft 435 kts 223°
2026-04-29 22:40 9.12298 -71.81001 35819 ft 435 kts 223°
2026-04-29 22:41 9.07997 -71.84946 35819 ft 435 kts 223°
2026-04-29 22:41 9.03504 -71.89060 35821 ft 435 kts 223°
2026-04-29 22:42 8.99030 -71.93130 35821 ft 434 kts 220°
2026-04-29 22:42 8.93888 -71.96382 35816 ft 436 kts 210°
2026-04-29 22:43 8.88577 -71.99353 35820 ft 436 kts 210°
2026-04-29 22:43 8.83289 -72.02322 35820 ft 436 kts 211°
2026-04-29 22:44 8.78006 -72.05289 35825 ft 436 kts 210°
2026-04-29 22:44 8.72867 -72.08172 35825 ft 436 kts 211°
2026-04-29 22:45 8.68087 -72.10852 35823 ft 436 kts 210°
2026-04-29 22:45 8.62763 -72.13835 35836 ft 438 kts 210°
2026-04-29 22:46 8.57419 -72.16825 35835 ft 438 kts 210°
2026-04-29 22:46 8.52110 -72.19796 35835 ft 438 kts 210°
2026-04-29 22:47 8.46779 -72.22785 35860 ft 438 kts 210°
2026-04-29 22:47 8.41641 -72.25663 35835 ft 438 kts 210°
2026-04-29 22:48 8.36347 -72.28626 35861 ft 436 kts 210°
2026-04-29 22:48 8.31023 -72.31604 35859 ft 436 kts 210°
2026-04-29 22:49 8.25714 -72.34569 35860 ft 434 kts 210°
2026-04-29 22:49 8.20449 -72.37507 35891 ft 434 kts 210°
2026-04-29 22:50 8.15152 -72.40467 35874 ft 434 kts 210°
2026-04-29 22:50 8.10262 -72.43202 35890 ft 434 kts 210°
2026-04-29 22:51 8.04970 -72.46159 35892 ft 434 kts 210°
2026-04-29 22:51 7.97062 -72.50574 35892 ft 434 kts 210°
2026-04-29 22:52 7.91772 -72.53531 35892 ft 433 kts 210°
2026-04-29 22:52 7.86531 -72.56454 35893 ft 433 kts 210°
2026-04-29 22:53 7.81249 -72.59400 35904 ft 433 kts 210°
2026-04-29 22:53 7.75970 -72.62348 35918 ft 434 kts 210°
2026-04-29 22:54 7.70706 -72.65286 35953 ft 434 kts 210°
2026-04-29 22:54 7.65418 -72.68232 35997 ft 434 kts 210°
2026-04-29 22:55 7.60123 -72.71175 35992 ft 434 kts 210°
2026-04-29 22:55 7.54817 -72.74129 35997 ft 435 kts 210°
2026-04-29 22:56 7.49536 -72.77069 36027 ft 435 kts 210°
2026-04-29 22:56 7.44220 -72.80031 36027 ft 435 kts 210°
2026-04-29 22:57 7.38951 -72.82960 36022 ft 434 kts 210°
2026-04-29 22:57 7.33656 -72.85902 36024 ft 435 kts 210°
2026-04-29 22:58 7.28358 -72.88851 36024 ft 434 kts 210°
2026-04-29 22:58 7.23079 -72.91794 36021 ft 436 kts 211°
2026-04-29 22:59 7.17774 -72.94742 36024 ft 437 kts 210°
2026-04-29 22:59 7.12439 -72.97703 35978 ft 436 kts 210°
2026-04-29 23:00 7.07144 -73.00644 35978 ft 436 kts 210°
2026-04-29 23:00 7.01817 -73.03605 35978 ft 436 kts 210°
2026-04-29 23:01 6.96532 -73.06546 35966 ft 436 kts 211°
2026-04-29 23:01 6.91245 -73.09481 35919 ft 436 kts 210°
2026-04-29 23:02 6.85912 -73.12432 35924 ft 436 kts 210°
2026-04-29 23:02 6.80623 -73.15363 35927 ft 436 kts 210°
2026-04-29 23:03 6.75307 -73.18313 35927 ft 436 kts 210°
2026-04-29 23:03 6.70020 -73.21251 35929 ft 436 kts 210°
2026-04-29 23:04 6.64708 -73.24203 35909 ft 436 kts 210°
2026-04-29 23:04 6.59395 -73.27152 35908 ft 436 kts 210°
2026-04-29 23:05 6.54080 -73.30091 35922 ft 437 kts 210°
2026-04-29 23:05 6.48758 -73.33038 35934 ft 437 kts 210°
2026-04-29 23:06 6.43463 -73.35973 35932 ft 437 kts 210°
2026-04-29 23:06 6.38113 -73.38931 35927 ft 437 kts 210°
2026-04-29 23:07 6.32810 -73.41866 35928 ft 436 kts 210°
2026-04-29 23:07 6.27504 -73.44802 35927 ft 436 kts 210°
2026-04-29 23:08 6.22178 -73.47748 35958 ft 437 kts 210°
2026-04-29 23:08 6.16844 -73.50706 35958 ft 438 kts 209°
2026-04-29 23:09 6.11514 -73.53652 35981 ft 439 kts 209°
2026-04-29 23:09 6.06165 -73.56611 35977 ft 439 kts 209°
2026-04-29 23:10 6.00828 -73.59567 35988 ft 439 kts 209°
2026-04-29 23:10 5.95497 -73.62513 36015 ft 439 kts 209°
2026-04-29 23:11 5.90134 -73.65468 36006 ft 439 kts 209°
2026-04-29 23:11 5.84789 -73.68418 36013 ft 437 kts 209°
2026-04-29 23:12 5.79471 -73.71353 36039 ft 439 kts 208°
2026-04-29 23:12 5.74090 -73.74320 36041 ft 440 kts 208°
2026-04-29 23:13 5.68762 -73.77262 36060 ft 440 kts 208°
2026-04-29 23:13 5.63382 -73.80243 36033 ft 440 kts 209°
2026-04-29 23:14 5.58042 -73.83198 36042 ft 440 kts 208°
2026-04-29 23:14 5.53861 -73.86074 36057 ft 439 kts 226°
2026-04-29 23:15 5.52032 -73.88531 36058 ft 440 kts 241°
2026-04-29 23:15 5.50717 -73.91325 36060 ft 441 kts 245°
2026-04-29 23:15 5.48186 -73.96914 36041 ft 440 kts 245°
2026-04-29 23:16 5.45650 -74.02510 36043 ft 439 kts 245°
2026-04-29 23:16 5.43124 -74.08074 36013 ft 440 kts 245°
2026-04-29 23:17 5.40575 -74.13680 36035 ft 440 kts 245°
2026-04-29 23:17 5.38042 -74.19231 36047 ft 440 kts 245°
2026-04-29 23:18 5.35488 -74.24822 35996 ft 439 kts 245°
2026-04-29 23:18 5.32943 -74.30409 36004 ft 440 kts 245°
2026-04-29 23:19 5.30414 -74.35962 35961 ft 439 kts 243°
2026-04-29 23:19 5.28784 -74.38546 35962 ft 438 kts 229°
2026-04-29 23:19 5.26545 -74.40611 35981 ft 437 kts 217°
2026-04-29 23:20 5.21682 -74.44249 35989 ft 438 kts 217°
2026-04-29 23:20 5.16781 -74.47921 35992 ft 438 kts 217°
2026-04-29 23:21 5.11660 -74.51134 35986 ft 438 kts 196°
2026-04-29 23:21 5.08641 -74.51457 35980 ft 439 kts 175°
2026-04-29 23:21 5.05718 -74.50656 35980 ft 443 kts 155°
2026-04-29 23:22 5.03093 -74.49027 36026 ft 447 kts 143°
2026-04-29 23:22 5.00750 -74.46958 36011 ft 449 kts 136°
2026-04-29 23:22 4.96392 -74.42427 36028 ft 450 kts 136°
2026-04-29 23:23 4.91867 -74.38149 36075 ft 449 kts 140°
2026-04-29 23:23 4.87223 -74.34299 36175 ft 448 kts 142°
2026-04-29 23:24 4.82372 -74.30412 36232 ft 447 kts 142°
2026-04-29 23:24 4.77505 -74.26498 36281 ft 447 kts 142°
2026-04-29 23:25 4.72677 -74.22610 36327 ft 446 kts 142°
2026-04-29 23:25 4.67847 -74.18715 36327 ft 445 kts 142°
2026-04-29 23:26 4.63010 -74.14816 36328 ft 445 kts 142°
2026-04-29 23:26 4.58200 -74.10936 36304 ft 445 kts 142°
2026-04-29 23:27 4.53369 -74.07036 36259 ft 445 kts 142°
2026-04-29 23:27 4.50952 -74.05083 36138 ft 445 kts 142°
2026-04-29 23:27 4.48570 -74.03158 36151 ft 445 kts 142°
2026-04-29 23:28 4.43730 -73.99241 36157 ft 446 kts 142°
2026-04-29 23:28 4.38936 -73.95340 36116 ft 446 kts 142°
2026-04-29 23:29 4.34089 -73.91416 36080 ft 447 kts 142°
2026-04-29 23:29 4.29271 -73.87516 36081 ft 447 kts 142°
2026-04-29 23:30 4.24428 -73.83588 36039 ft 447 kts 142°
2026-04-29 23:30 4.19605 -73.79675 35962 ft 447 kts 142°
2026-04-29 23:31 4.14760 -73.75743 35933 ft 447 kts 142°
2026-04-29 23:31 4.09948 -73.71837 35928 ft 447 kts 142°
2026-04-29 23:32 4.05098 -73.67899 35926 ft 447 kts 142°
2026-04-29 23:32 4.00285 -73.63997 35913 ft 446 kts 142°
2026-04-29 23:33 3.95452 -73.60098 35914 ft 444 kts 142°
2026-04-29 23:33 3.90652 -73.56204 35907 ft 443 kts 142°
2026-04-29 23:34 3.85873 -73.52322 35899 ft 443 kts 142°
2026-04-29 23:34 3.81102 -73.48439 35876 ft 443 kts 142°
2026-04-29 23:35 3.76312 -73.44535 35880 ft 443 kts 142°
2026-04-29 23:35 3.71549 -73.40652 35878 ft 443 kts 142°
2026-04-29 23:36 3.66739 -73.36755 35876 ft 444 kts 142°
2026-04-29 23:36 3.61904 -73.32890 35875 ft 443 kts 142°
2026-04-29 23:37 3.57081 -73.29092 35879 ft 443 kts 142°
2026-04-29 23:37 3.52204 -73.25280 35883 ft 444 kts 142°
2026-04-29 23:38 3.47349 -73.21485 35879 ft 444 kts 142°
2026-04-29 23:38 3.42462 -73.17665 35871 ft 444 kts 142°
2026-04-29 23:39 3.37586 -73.13850 35876 ft 444 kts 142°
2026-04-29 23:39 3.32743 -73.10060 35878 ft 443 kts 142°
2026-04-29 23:40 3.27871 -73.06234 35814 ft 446 kts 142°
2026-04-29 23:40 3.23033 -73.02437 35879 ft 444 kts 142°
2026-04-29 23:41 3.18160 -72.98616 35879 ft 443 kts 142°
2026-04-29 23:41 3.13312 -72.94810 35884 ft 444 kts 141°
2026-04-29 23:42 3.08419 -72.90979 35878 ft 446 kts 142°
2026-04-29 23:42 3.03547 -72.87166 35883 ft 446 kts 142°
2026-04-29 23:43 2.98651 -72.83330 35880 ft 446 kts 142°
2026-04-29 23:43 2.93786 -72.79516 35883 ft 446 kts 142°
2026-04-29 23:44 2.88882 -72.75674 35892 ft 446 kts 141°
2026-04-29 23:44 2.84025 -72.71876 35891 ft 446 kts 141°
2026-04-29 23:45 2.79125 -72.68044 35885 ft 445 kts 141°
2026-04-29 23:45 2.74266 -72.64247 35895 ft 445 kts 141°
2026-04-29 23:46 2.69373 -72.60414 35894 ft 445 kts 141°
2026-04-29 23:46 2.64527 -72.56608 35896 ft 444 kts 141°
2026-04-29 23:47 2.59657 -72.52782 35893 ft 444 kts 141°
2026-04-29 23:47 2.54795 -72.48958 35890 ft 443 kts 141°
2026-04-29 23:48 2.49945 -72.45151 35897 ft 445 kts 141°
2026-04-29 23:48 2.45072 -72.41327 35893 ft 445 kts 141°
2026-04-29 23:49 2.40227 -72.37523 35902 ft 445 kts 141°
2026-04-29 23:49 2.35492 -72.33803 35901 ft 445 kts 141°
2026-04-29 23:50 2.31061 -72.30319 35904 ft 445 kts 141°
2026-04-29 23:51 2.24667 -72.25287 35901 ft 445 kts 141°
2026-04-29 23:51 2.20011 -72.21617 35902 ft 445 kts 141°
2026-04-29 23:52 2.15239 -72.17861 35908 ft 444 kts 141°
2026-04-29 23:52 2.10507 -72.14153 35903 ft 443 kts 141°
2026-04-29 23:53 2.05701 -72.10386 35904 ft 443 kts 141°
2026-04-29 23:53 2.01067 -72.06752 35913 ft 443 kts 141°
2026-04-29 23:54 1.96204 -72.02935 35914 ft 443 kts 141°
2026-04-29 23:54 1.91359 -71.99129 35909 ft 443 kts 141°
2026-04-29 23:55 1.86532 -71.95333 35916 ft 443 kts 141°
2026-04-29 23:55 1.81846 -71.91646 35917 ft 443 kts 141°
2026-04-29 23:56 1.77019 -71.87855 35907 ft 443 kts 141°
2026-04-29 23:56 1.72387 -71.84215 35916 ft 443 kts 141°
2026-04-29 23:57 1.67524 -71.80391 35918 ft 444 kts 141°
2026-04-29 23:57 1.62696 -71.76591 35916 ft 443 kts 141°
2026-04-29 23:58 1.57846 -71.72773 35918 ft 443 kts 141°
2026-04-29 23:58 1.53235 -71.69112 35923 ft 444 kts 141°
2026-04-29 23:59 1.48410 -71.65305 35916 ft 443 kts 141°
2026-04-29 23:59 1.43632 -71.61537 35922 ft 443 kts 141°
2026-04-30 00:00 1.39205 -71.58060 35922 ft 443 kts 141°
2026-04-30 00:00 1.34348 -71.54235 35908 ft 443 kts 141°
2026-04-30 00:01 1.29796 -71.50625 35914 ft 443 kts 141°
2026-04-30 00:01 1.24996 -71.46815 35918 ft 443 kts 141°
2026-04-30 00:02 1.20161 -71.42975 35915 ft 443 kts 141°
2026-04-30 00:02 1.15502 -71.39270 35916 ft 443 kts 141°
2026-04-30 00:03 1.10710 -71.35457 35916 ft 443 kts 141°
2026-04-30 00:03 1.05956 -71.31672 35910 ft 443 kts 141°
2026-04-30 00:04 1.01932 -71.28468 35921 ft 443 kts 141°
2026-04-30 00:04 0.97124 -71.24637 35918 ft 443 kts 141°
2026-04-30 00:05 0.92284 -71.20776 35916 ft 443 kts 141°
2026-04-30 00:05 0.87457 -71.16923 35922 ft 443 kts 141°
2026-04-30 00:06 0.82775 -71.13183 35921 ft 443 kts 141°
2026-04-30 00:06 0.77943 -71.09319 35922 ft 444 kts 141°
2026-04-30 00:07 0.73119 -71.05459 35921 ft 444 kts 141°
2026-04-30 00:07 0.68473 -71.01742 35916 ft 444 kts 141°
2026-04-30 00:08 0.63657 -70.97889 35919 ft 444 kts 141°
2026-04-30 00:08 0.58814 -70.94010 35920 ft 444 kts 141°
2026-04-30 00:09 0.54006 -70.90157 35925 ft 444 kts 140°
2026-04-30 00:09 0.49179 -70.86277 35920 ft 444 kts 141°
2026-04-30 00:10 0.44405 -70.82409 35921 ft 444 kts 140°
2026-04-30 00:10 0.39601 -70.78511 35922 ft 444 kts 140°
2026-04-30 00:11 0.34826 -70.74635 35923 ft 444 kts 140°
2026-04-30 00:11 0.30014 -70.70740 35920 ft 444 kts 140°
2026-04-30 00:12 0.25202 -70.66843 35922 ft 444 kts 140°
2026-04-30 00:12 0.20418 -70.62965 35923 ft 444 kts 140°
2026-04-30 00:13 0.15616 -70.59070 35922 ft 444 kts 140°
2026-04-30 00:13 0.10836 -70.55190 35922 ft 444 kts 140°
2026-04-30 00:14 0.06062 -70.51300 35920 ft 443 kts 140°
2026-04-30 00:14 0.01284 -70.47389 35923 ft 443 kts 140°
2026-04-30 00:15 -0.03520 -70.43478 35917 ft 447 kts 140°
2026-04-30 00:15 -0.08360 -70.39573 35916 ft 449 kts 140°
2026-04-30 00:16 -0.13202 -70.35665 35919 ft 449 kts 140°
2026-04-30 00:16 -0.18070 -70.31731 35918 ft 449 kts 140°
2026-04-30 00:17 -0.22904 -70.27818 35919 ft 449 kts 140°
2026-04-30 00:17 -0.27764 -70.23880 35917 ft 449 kts 140°
2026-04-30 00:18 -0.32600 -70.19960 35921 ft 449 kts 140°
2026-04-30 00:18 -0.37440 -70.16028 35922 ft 446 kts 140°
2026-04-30 00:19 -0.42219 -70.12141 35920 ft 445 kts 140°
2026-04-30 00:19 -0.47029 -70.08226 35919 ft 445 kts 140°
2026-04-30 00:20 -0.51843 -70.04301 35918 ft 445 kts 140°
2026-04-30 00:20 -0.56609 -70.00413 35921 ft 445 kts 140°
2026-04-30 00:21 -0.61419 -69.96486 35920 ft 445 kts 140°
2026-04-30 00:21 -0.66210 -69.92572 35923 ft 445 kts 140°
2026-04-30 00:22 -0.70980 -69.88672 35923 ft 445 kts 140°
2026-04-30 00:22 -0.75791 -69.84739 35920 ft 445 kts 140°
2026-04-30 00:23 -0.80596 -69.80810 35921 ft 445 kts 140°
2026-04-30 00:23 -0.85361 -69.76909 35923 ft 445 kts 140°
2026-04-30 00:24 -0.90132 -69.72996 35920 ft 445 kts 140°
2026-04-30 00:24 -0.94930 -69.69058 35921 ft 445 kts 140°
2026-04-30 00:25 -0.99688 -69.65150 35920 ft 445 kts 140°
2026-04-30 00:25 -1.04485 -69.61205 35923 ft 445 kts 140°
2026-04-30 00:26 -1.09239 -69.57292 35923 ft 444 kts 140°
2026-04-30 00:26 -1.14022 -69.53344 35920 ft 444 kts 140°
2026-04-30 00:27 -1.18775 -69.49424 35921 ft 444 kts 140°
2026-04-30 00:27 -1.23552 -69.45487 35926 ft 444 kts 140°
2026-04-30 00:28 -1.28293 -69.41575 35925 ft 444 kts 140°
2026-04-30 00:28 -1.33073 -69.37626 35921 ft 445 kts 140°
2026-04-30 00:29 -1.37822 -69.33699 35923 ft 445 kts 140°
2026-04-30 00:29 -1.42592 -69.29751 35923 ft 444 kts 140°
2026-04-30 00:30 -1.47326 -69.25828 35926 ft 445 kts 140°
2026-04-30 00:30 -1.52107 -69.21860 35925 ft 445 kts 140°
2026-04-30 00:31 -1.56872 -69.17903 35923 ft 444 kts 140°
2026-04-30 00:31 -1.61607 -69.13979 35922 ft 443 kts 140°
2026-04-30 00:32 -1.66334 -69.10057 35922 ft 443 kts 139°
2026-04-30 00:32 -1.71082 -69.06113 35926 ft 443 kts 139°
2026-04-30 00:33 -1.75838 -69.02158 35928 ft 443 kts 139°
2026-04-30 00:33 -1.80546 -68.98235 35925 ft 443 kts 139°
2026-04-30 00:34 -1.85262 -68.94287 35926 ft 443 kts 139°
2026-04-30 00:34 -1.89994 -68.90322 35929 ft 443 kts 139°
2026-04-30 00:35 -1.94739 -68.86340 35929 ft 443 kts 139°
2026-04-30 00:35 -1.99429 -68.82399 35928 ft 443 kts 139°
2026-04-30 00:36 -2.04144 -68.78431 35929 ft 443 kts 139°
2026-04-30 00:36 -2.08840 -68.74474 35930 ft 443 kts 139°
2026-04-30 00:37 -2.13556 -68.70494 35930 ft 443 kts 139°
2026-04-30 00:37 -2.18263 -68.66527 35929 ft 445 kts 139°
2026-04-30 00:38 -2.23011 -68.62521 35931 ft 445 kts 139°
2026-04-30 00:38 -2.27718 -68.58545 35934 ft 445 kts 139°
2026-04-30 00:39 -2.32453 -68.54539 35934 ft 445 kts 139°
2026-04-30 00:39 -2.37152 -68.50556 35931 ft 445 kts 139°
2026-04-30 00:40 -2.41876 -68.46539 35931 ft 445 kts 139°
2026-04-30 00:40 -2.46572 -68.42542 35934 ft 445 kts 139°
2026-04-30 00:41 -2.51302 -68.38517 35934 ft 445 kts 139°
2026-04-30 00:41 -2.56007 -68.34520 35933 ft 445 kts 139°
2026-04-30 00:42 -2.60736 -68.30497 35934 ft 445 kts 139°
2026-04-30 00:42 -2.65458 -68.26475 35933 ft 445 kts 139°
2026-04-30 00:43 -2.70161 -68.22465 35934 ft 445 kts 139°
2026-04-30 00:43 -2.74873 -68.18433 35917 ft 444 kts 139°
2026-04-30 00:44 -2.79519 -68.14417 35920 ft 443 kts 139°
2026-04-30 00:44 -2.84185 -68.10379 35922 ft 443 kts 139°
2026-04-30 00:45 -2.88875 -68.06343 35920 ft 444 kts 139°
2026-04-30 00:45 -2.93534 -68.02334 35923 ft 444 kts 139°
2026-04-30 00:46 -2.98226 -67.98292 35925 ft 444 kts 139°
2026-04-30 00:46 -3.02883 -67.94276 35924 ft 444 kts 139°
2026-04-30 00:47 -3.07571 -67.90230 35919 ft 442 kts 139°
2026-04-30 00:47 -3.09796 -67.88311 35916 ft 400 kts 139°
2026-04-30 00:47 -3.11815 -67.86577 35895 ft 377 kts 139°
2026-04-30 00:47 -3.13764 -67.84924 35866 ft 356 kts 139°
2026-04-30 00:48 -3.15611 -67.83367 35829 ft 336 kts 139°
2026-04-30 00:48 -3.17353 -67.81896 35770 ft 318 kts 139°
2026-04-30 00:48 -3.18988 -67.80494 35680 ft 301 kts 139°
2026-04-30 00:48 -3.20501 -67.79152 35559 ft 285 kts 138°
2026-04-30 00:49 -3.21912 -67.77827 35390 ft 271 kts 135°
2026-04-30 00:49 -3.23191 -67.76509 35175 ft 256 kts 132°
2026-04-30 00:49 -3.24299 -67.75172 34899 ft 243 kts 125°
2026-04-30 00:49 -3.25150 -67.73788 34469 ft 218 kts 97°
2026-04-30 00:50 -3.25400 -67.72558 31120 ft 160 kts 58°
2026-04-30 00:50 -3.24929 -67.71620 24747 ft 178 kts 80°
2026-04-30 00:50 -3.25149 -67.69307 19137 ft 452 kts 107°
2026-04-30 00:50 -3.25981 -67.67166 21425 ft 347 kts 113°
2026-04-30 00:51 -3.27006 -67.65320 23469 ft 262 kts 123°
2026-04-30 00:51 -3.28029 -67.64123 24509 ft 195 kts 137°
2026-04-30 00:51 -3.28705 -67.63635 24613 ft 155 kts 167°
2026-04-30 00:51 -3.29631 -67.63419 21616 ft 144 kts 193°
2026-04-30 00:52 -3.30239 -67.63338 13966 ft 90 kts 119°
2026-04-30 00:52 -3.29954 -67.61218 3855 ft 483 kts 76°
2026-04-30 00:52 -3.29472 -67.59064 445 ft 81 kts 47°
2026-04-30 00:52 -3.29472 -67.59007 269 ft 0 kts 275°